Weather History for DeLand, FL

Change the Weather History Date:

Saturday, August 30, 2014

  Actual Average Record
Temperature  
Mean Temperature 80 °F -  
Max Temperature 89 °F 90 °F 89 °F (2014)
Min Temperature 71 °F 71 °F 71 °F (2014)
Cooling Degree Days 15    
Growing Degree Days 30 (Base 50)    
Moisture  
Dew Point 74 °F    
Average Humidity 83    
Maximum Humidity 100    
Minimum Humidity 59    
Precipitation  
Precipitation 0.00 in - - ()
Sea Level Pressure  
Sea Level Pressure 30.12 in    
Wind  
Wind Speed 3 mph (SE)    
Max Wind Speed 14 mph    
Max Gust Speed 18 mph    
Visibility 9 miles    
Events      
Averages and records for this station are not official NWS values.
T = Trace of Precipitation, MM = Missing Value Source: NWS Daily Summary

Daily Weather History Graph

Daily Weather History Graph

Search for Another Location

Airport:

Trip Planner

Search our weather history database for the weather conditions in past years. The results will help you decide how hot, cold, wet, or windy it might be!

Date:

Astronomy

Aug. 30, 2014 Rise Set
Actual Time 7:01 AM EDT 7:49 PM EDT
Civil Twilight 6:37 AM EDT 8:13 PM EDT
Nautical Twilight 6:09 AM EDT 8:41 PM EDT
Astronomical Twilight 5:39 AM EDT 9:10 PM EDT
Moon 11:23 AM EDT (8/30) 10:48 PM EDT (8/30)
Length of Visible Light 13h 35m
Length of Day
12h 47m
Waxing Crescent, 23% of the Moon is Illuminated
Aug 30
Waxing Crescent
Sep 2
First Quarter
Sep 8
Full
Sep 15
Last Quarter
Sep 24
New

Hourly Weather History & Observations

Time (EDT) Temp. Heat Index Dew Point Humidity Pressure Visibility Wind Dir Wind Speed Gust Speed Precip Events Conditions
12:15 AM 75.2 °F - 73.4 °F 94% 30.12 in 10.0 mi SSW 4.6 mph - N/A   Clear
12:35 AM 75.2 °F - 73.4 °F 94% 30.11 in 10.0 mi SSE 3.5 mph - N/A   Unknown
12:55 AM 73.4 °F - 73.4 °F 100% 30.11 in 10.0 mi Calm Calm - N/A   Unknown
1:15 AM 73.4 °F - 73.4 °F 100% 30.11 in 10.0 mi Calm Calm - N/A   Clear
1:35 AM 73.4 °F - 73.4 °F 100% 30.12 in 10.0 mi NE 4.6 mph - N/A   Clear
1:55 AM 73.4 °F - 73.4 °F 100% 30.11 in 10.0 mi NNW 5.8 mph - N/A   Clear
2:15 AM 73.4 °F - 73.4 °F 100% 30.12 in 9.0 mi NW 3.5 mph - N/A   Clear
2:35 AM 73.4 °F - 73.4 °F 100% 30.12 in 10.0 mi Calm Calm - N/A   Clear
2:55 AM 73.4 °F - 73.4 °F 100% 30.11 in 10.0 mi Calm Calm - N/A   Clear
3:15 AM 73.4 °F - 73.4 °F 100% 30.11 in 10.0 mi SSW 3.5 mph - N/A   Clear
3:35 AM 73.4 °F - 73.4 °F 100% 30.11 in 10.0 mi Calm Calm - N/A   Clear
3:55 AM 73.4 °F - 73.4 °F 100% 30.11 in 10.0 mi Calm Calm - N/A   Clear
4:15 AM 73.4 °F - 73.4 °F 100% 30.11 in 10.0 mi SE 3.5 mph - N/A   Clear
4:35 AM 73.4 °F - 73.4 °F 100% 30.11 in 10.0 mi South 4.6 mph - N/A   Clear
4:55 AM 73.4 °F - 73.4 °F 100% 30.11 in 10.0 mi SSE 4.6 mph - N/A   Clear
5:15 AM 73.4 °F - 73.4 °F 100% 30.12 in 10.0 mi West 3.5 mph - N/A   Clear
5:35 AM 73.4 °F - 71.6 °F 94% 30.12 in 10.0 mi NW 3.5 mph - N/A   Clear
5:55 AM 73.4 °F - 71.6 °F 94% 30.13 in 1.0 mi Calm Calm - N/A   Overcast
6:15 AM 73.4 °F - 71.6 °F 94% 30.14 in 0.5 mi NW 3.5 mph - N/A   Overcast
6:35 AM 71.6 °F - 71.6 °F 100% 30.14 in 0.5 mi Calm Calm - N/A   Overcast
6:55 AM 71.6 °F - 71.6 °F 100% 30.14 in 0.5 mi Calm Calm - N/A   Overcast
7:15 AM 71.6 °F - 71.6 °F 100% 30.15 in 1.2 mi Calm Calm - N/A   Overcast
7:35 AM 71.6 °F - 71.6 °F 100% 30.15 in 0.2 mi Calm Calm - N/A   Overcast
7:55 AM 73.4 °F - 71.6 °F 94% 30.15 in 5.0 mi Calm Calm - N/A   Unknown
8:15 AM 73.4 °F - 73.4 °F 100% 30.16 in 10.0 mi Calm Calm - N/A   Clear
8:35 AM 75.2 °F - 75.2 °F 100% 30.16 in 10.0 mi Calm Calm - N/A   Clear
8:55 AM 77.0 °F - 73.4 °F 89% 30.17 in 10.0 mi Calm Calm - N/A   Clear
9:15 AM 78.8 °F - 73.4 °F 83% 30.17 in 10.0 mi Calm Calm - N/A   Clear
9:35 AM 80.6 °F 86.2 °F 75.2 °F 84% 30.17 in 10.0 mi Calm Calm - N/A   Clear
9:55 AM 82.4 °F 88.2 °F 73.4 °F 74% 30.18 in 10.0 mi Calm Calm - N/A   Clear
10:15 AM 82.4 °F 89.5 °F 75.2 °F 79% 30.18 in 10.0 mi SSE 3.5 mph - N/A   Clear
10:35 AM 84.2 °F 92.3 °F 75.2 °F 74% 30.17 in 10.0 mi Calm Calm - N/A   Clear
10:55 AM 84.2 °F 90.9 °F 73.4 °F 70% 30.17 in 10.0 mi SSW 5.8 mph - N/A   Clear
11:15 AM 86.0 °F 93.4 °F 73.4 °F 66% 30.17 in 10.0 mi South 4.6 mph - N/A   Clear
11:35 AM 86.0 °F 93.4 °F 73.4 °F 66% 30.16 in 10.0 mi Calm Calm - N/A   Partly Cloudy
11:55 AM 86.0 °F 95.1 °F 75.2 °F 70% 30.15 in 10.0 mi East 4.6 mph - N/A   Scattered Clouds
12:15 PM 86.0 °F 95.1 °F 75.2 °F 70% 30.15 in 10.0 mi Calm Calm - N/A   Mostly Cloudy
12:35 PM 87.8 °F 97.6 °F 75.2 °F 66% 30.14 in 10.0 mi South 4.6 mph - N/A   Partly Cloudy
12:55 PM 87.8 °F 95.6 °F 73.4 °F 62% 30.13 in 10.0 mi Calm Calm - N/A   Partly Cloudy
1:15 PM 89.6 °F 98.2 °F 73.4 °F 59% 30.13 in 10.0 mi West 3.5 mph - N/A   Clear
1:35 PM 89.6 °F 98.2 °F 73.4 °F 59% 30.12 in 10.0 mi South 4.6 mph - N/A   Partly Cloudy
1:55 PM 89.6 °F 98.2 °F 73.4 °F 59% 30.12 in 10.0 mi Calm Calm - N/A   Partly Cloudy
2:55 PM 89.6 °F 98.2 °F 73.4 °F 59% 30.10 in 10.0 mi NNW 4.6 mph - N/A   Partly Cloudy
3:15 PM 89.6 °F 98.2 °F 73.4 °F 59% 30.09 in 10.0 mi NE 4.6 mph - N/A   Scattered Clouds
4:15 PM 89.6 °F 102.2 °F 77.0 °F 66% 30.08 in 10.0 mi East 13.8 mph 18.4 mph N/A   Scattered Clouds
4:35 PM 86.0 °F 96.9 °F 77.0 °F 74% 30.08 in 10.0 mi East 9.2 mph - N/A   Mostly Cloudy
4:55 PM 87.8 °F 99.7 °F 77.0 °F 70% 30.07 in 10.0 mi East 9.2 mph - N/A   Partly Cloudy
5:15 PM 86.0 °F 95.1 °F 75.2 °F 70% 30.07 in 10.0 mi ESE 8.1 mph - N/A   Scattered Clouds
5:35 PM 86.0 °F 95.1 °F 75.2 °F 70% 30.08 in 10.0 mi East 6.9 mph - N/A   Partly Cloudy
5:55 PM 87.8 °F 97.6 °F 75.2 °F 66% 30.08 in 10.0 mi East 9.2 mph - N/A   Clear
6:15 PM 87.8 °F 95.6 °F 73.4 °F 62% 30.08 in 10.0 mi ESE 9.2 mph - N/A   Partly Cloudy
6:35 PM 86.0 °F 93.4 °F 73.4 °F 66% 30.08 in 10.0 mi ESE 6.9 mph - N/A   Partly Cloudy
6:55 PM 86.0 °F 93.4 °F 73.4 °F 66% 30.08 in 10.0 mi ESE 8.1 mph - N/A   Clear
7:15 PM 84.2 °F 90.9 °F 73.4 °F 70% 30.09 in 10.0 mi ESE 6.9 mph - N/A   Clear
7:35 PM 82.4 °F 88.2 °F 73.4 °F 74% 30.08 in 10.0 mi East 5.8 mph - N/A   Clear
7:55 PM 82.4 °F 88.2 °F 73.4 °F 74% 30.09 in 10.0 mi East 5.8 mph - N/A   Unknown
8:15 PM 82.4 °F 88.2 °F 73.4 °F 74% 30.10 in 10.0 mi ESE 6.9 mph - N/A   Unknown
8:35 PM 80.6 °F 85.4 °F 73.4 °F 79% 30.11 in 10.0 mi ESE 6.9 mph - N/A   Clear
8:55 PM 80.6 °F 85.4 °F 73.4 °F 79% 30.11 in 10.0 mi ESE 6.9 mph - N/A   Clear
9:35 PM 80.6 °F 85.4 °F 73.4 °F 79% 30.13 in 10.0 mi ESE 5.8 mph - N/A   Clear
9:55 PM 78.8 °F - 75.2 °F 89% 30.13 in 10.0 mi SE 5.8 mph - N/A   Clear
10:15 PM 78.8 °F - 75.2 °F 89% 30.14 in 10.0 mi ESE 5.8 mph - N/A   Clear
10:35 PM 78.8 °F - 75.2 °F 89% 30.14 in 10.0 mi ESE 4.6 mph - N/A   Clear
10:55 PM 78.8 °F - 75.2 °F 89% 30.15 in 10.0 mi SE 3.5 mph - N/A   Clear
11:15 PM 78.8 °F - 75.2 °F 89% 30.16 in 10.0 mi Calm Calm - N/A   Clear
11:35 PM 77.0 °F - 75.2 °F 94% 30.16 in 10.0 mi Calm Calm - N/A   Clear
11:55 PM 77.0 °F - 75.2 °F 94% 30.16 in 10.0 mi Calm Calm - N/A   Clear